Location: Oberwangen
(47.4286°N, 8.9679°E)
Time: 09:21:46
(UTC+00:00)

Cosmos 1707 - Pass Details

Date: 20 June 2021
Orbit: 513 x 530 km, 82.5° (Epoch: 04 August)

Event Time Altitude Azimuth Distance (km) Brightness Sun altitude
Rises 20:01:50 0° 197° (SSW) 2,646 6.0 -5.6°
Reaches altitude 10° 20:03:59 10° 201° (SSW) 1,765 5.2 -5.9°
Maximum altitude 20:07:49 58° 281° (WNW) 620 3.4 -6.3°
Drops below altitude 10° 20:11:42 10° 2° (N) 1,787 6.1 -6.8°
Sets 20:13:53 0° 6° (N) 2,684 7.0 -7.0°
